Venice, California, United States (90291)
Lat: 33.99N, Lon: 118.46W
Wx Zone: CAZ041
Local Info
Past Weather Observations for Today

NOTE: This archive is for the closest National Weather Service station to Venice. Information may differ from the station used for current weather conditions.

Click here for Long-term Archive

Time Weather Temperature Dewpoint Humidity Pressure Winds Precip Visibility
18:53
Partly Cloudy
57°F / 14°C 52°F / 11°C 82% 29.98 in
(1015 mb)
SSW 12.7 mph
(SSW 20 kph)
- 10SM
17:53
Partly Cloudy
59°F / 15°C 52°F / 11°C 77% 29.95 in
(1014 mb)
W 16.1 mph
(W 26 kph)
- 10SM
16:53
Partly Cloudy
61°F / 16°C 50°F / 10°C 68% 29.95 in
(1014 mb)
SSW 13.8 mph
(SSW 22 kph)
- 10SM
15:53
Partly Cloudy
63°F / 17°C 52°F / 11°C 68% 29.95 in
(1014 mb)
SSW 17.3 mph
(SSW 28 kph)
- 10SM
14:53
Partly Cloudy
63°F / 17°C 52°F / 11°C 68% 29.95 in
(1014 mb)
SSW 18.4 mph
(SSW 30 kph)
- 10SM
13:53
Partly Cloudy
63°F / 17°C 52°F / 11°C 68% 29.98 in
(1015 mb)
SSW 16.1 mph
(SSW 26 kph)
- 10SM
12:53
Partly Cloudy
64°F / 18°C 52°F / 11°C 64% 29.98 in
(1015 mb)
SSW 15 mph
(SSW 24 kph)
- 10SM
11:53
Mostly Cloudy
63°F / 17°C 52°F / 11°C 68% 30.01 in
(1016 mb)
SSW 13.8 mph
(SSW 22 kph)
- 10SM
11:29
Mostly Cloudy
63°F / 17°C 52°F / 11°C 68% 30.01 in
(1016 mb)
SSW 15 mph
(SSW 24 kph)
- 10SM
10:53
Mostly Cloudy
63°F / 17°C 52°F / 11°C 68% 30.01 in
(1016 mb)
SSW 11.5 mph
(SSW 19 kph)
- 9SM
09:53
Mostly Cloudy
61°F / 16°C 52°F / 11°C 72% 30.01 in
(1016 mb)
SW 6.9 mph
(SW 11 kph)
- 8SM
08:53
Mostly Cloudy
61°F / 16°C 52°F / 11°C 72% 29.98 in
(1015 mb)
W 5.8 mph
(W 9 kph)
- 8SM
07:53
Mostly Cloudy
59°F / 15°C 52°F / 11°C 77% 29.98 in
(1015 mb)
W 6.9 mph
(W 11 kph)
- 7SM
06:53
Mostly Cloudy
57°F / 14°C 52°F / 11°C 82% 29.98 in
(1015 mb)
SSW 5.8 mph
(SSW 9 kph)
- 7SM
05:53
Mostly Cloudy
55°F / 13°C 52°F / 11°C 88% 29.95 in
(1014 mb)
SSW 9.2 mph
(SSW 15 kph)
- 7SM
05:06
Mostly Cloudy
55°F / 13°C 52°F / 11°C 88% 29.95 in
(1014 mb)
SSE 9.2 mph
(SSE 15 kph)
- 9SM
04:53
Partly Cloudy
55°F / 13°C 52°F / 11°C 88% 29.95 in
(1014 mb)
SSE 8.1 mph
(SSE 13 kph)
- 10SM
03:53
Partly Cloudy
55°F / 13°C 52°F / 11°C 88% 29.92 in
(1013 mb)
S 5.8 mph
(S 9 kph)
- 10SM
02:53
Partly Cloudy
57°F / 14°C 52°F / 11°C 82% 29.92 in
(1013 mb)
SW 5.8 mph
(SW 9 kph)
- 10SM
01:53
Partly Cloudy
57°F / 14°C 52°F / 11°C 82% 29.95 in
(1014 mb)
SSE 8.1 mph
(SSE 13 kph)
- 10SM
Time Weather Temperature Dewpoint Humidity Pressure Winds Precip Visibility


Weather for websites

WeatherForYou.com, LLC is not responsible for any damages or problems caused by this service. Current weather conditions are obtained from the closest station including government and personal stations which may have varying degrees of accuracy. Weather forecasts are derived from the NOAA NDFD. Like all things, this site belongs to Jesus Christ... He just trusts us to maintain it. If you have any questions or comments email webmaster@weatherforyou.com

Copyright © 2015, WeatherForYou.com LLC. All rights reserved.